FW5989 Weather Reports


Display with metric or nautical units.
time (UTC)temp
F
wind
direction
speed
MPH
gust
MPH
rain 1hr
in
rain 24hr
in
rain mn
in
humidity
%
barometer
mb
20210410143102 66 236 1.0 4.0 0.00 0.00 0.00 57 1014.1
20210410141656 65 242 2.0 4.0 0.00 0.00 0.00 57 1014.3
20210410140342 64 233 1.0 4.0 0.00 0.00 0.00 56 1014.3
20210410134653 63 176 1.0 4.0 0.00 0.00 0.00 60 1014.4
20210410133051 62 310 1.0 2.0 0.00 0.00 0.00 59 1014.2
20210410131622 60 302 1.0 2.0 0.00 0.00 0.00 64 1014.2
20210410130159 60 246 0.0 2.0 0.00 0.00 0.00 66 1014.2
20210410124603 58 304 1.0 2.0 0.00 0.00 0.00 66 1014.2
20210410123659 57 255 0.0 1.0 0.00 0.00 0.00 70 1014.2
20210410121549 55 31 1.0 3.0 0.00 0.00 0.00 73 1014.2
20210410120222 54 316 1.0 2.0 0.00 0.00 0.00 73 1014.6
20210410114625 52 322 0.0 1.0 0.00 0.00 0.00 79 1014.7
20210410113219 50 309 0.0 1.0 0.00 0.00 0.00 83 1014.9
20210410111627 48 309 0.0 1.0 0.00 0.00 0.00 87 1015.0
20210410110135 46 309 0.0 1.0 0.00 0.00 0.00 89 1015.0
20210410104638 46 309 0.0 1.0 0.00 0.00 0.00 88 1015.2
20210410103049 45 309 1.0 3.0 0.00 0.00 0.00 90 1015.2
20210410101549 44 305 0.0 1.0 0.00 0.00 0.00 92 1015.2
20210410100101 44 335 0.0 1.0 0.00 0.00 0.00 92 1015.3
20210410094557 44 314 0.0 1.0 0.00 0.00 0.00 93 1015.3
20210410093106 43 314 0.0 1.0 0.00 0.00 0.00 92 1015.3
20210410091537 43 314 0.0 1.0 0.00 0.00 0.00 94 1015.4
20210410090114 43 314 0.0 1.0 0.00 0.00 0.00 93 1015.4
20210410084554 42 314 0.0 2.0 0.00 0.00 0.00 92 1015.6
20210410083032 42 339 0.0 1.0 0.00 0.00 0.00 93 1015.7
20210410081539 42 316 0.0 1.0 0.00 0.00 0.00 94 1015.7
20210410080053 42 316 0.0 2.0 0.00 0.00 0.00 93 1015.7
20210410074538 42 316 0.0 2.0 0.00 0.00 0.00 92 1015.7
20210410073018 43 299 0.0 1.0 0.00 0.00 0.00 91 1015.9
20210410071640 43 248 0.0 1.0 0.00 0.00 0.00 90 1016.1
20210410070125 44 248 0.0 1.0 0.00 0.00 0.00 89 1016.0
20210410065000 45 248 0.0 1.0 0.00 0.00 0.00 90 1016.0
20210410063347 45 248 0.0 1.0 0.00 0.00 0.00 89 1016.1
20210410061730 45 248 0.0 1.0 0.00 0.00 0.00 89 1016.4
20210410060309 44 248 0.0 1.0 0.00 0.00 0.00 89 1016.4
20210410054626 44 248 0.0 1.0 0.00 0.00 0.00 90 1016.5
20210410053140 44 246 0.0 1.0 0.00 0.00 0.00 89 1016.7
20210410051555 44 246 0.0 1.0 0.00 0.00 0.00 89 1016.7
20210410050139 44 246 0.0 0.0 0.00 0.00 0.00 88 1016.9
20210410044554 44 246 0.0 1.0 0.00 0.00 0.00 89 1017.2
20210410043128 44 161 0.0 1.0 0.00 0.00 0.00 88 1017.3
20210410041549 45 161 0.0 0.0 0.00 0.00 0.00 87 1017.4
20210410040122 45 161 0.0 0.0 0.00 0.00 0.00 87 1017.5
20210410034521 45 160 0.0 0.0 0.00 0.00 0.00 87 1017.5
20210410033110 46 160 0.0 0.0 0.00 0.00 0.00 86 1017.8
20210410031535 47 160 0.0 0.0 0.00 0.00 0.00 85 1018.0
20210410030421 47 136 0.0 1.0 0.00 0.00 0.00 84 1018.2
20210410024526 48 136 1.0 2.0 0.00 0.00 0.00 83 1018.3
20210410023047 48 153 0.0 2.0 0.00 0.00 0.00 82 1018.4
20210410021521 48 155 0.0 4.0 0.00 0.00 0.00 82 1018.5
20210410020025 49 137 0.0 2.0 0.00 0.00 0.00 81 1018.5
20210410014524 50 136 1.0 3.0 0.00 0.00 0.00 80 1018.7
20210410011511 51 141 1.0 4.0 0.00 0.00 0.00 78 1018.7
20210410010146 51 139 1.0 4.0 0.00 0.00 0.00 76 1018.6
20210410004643 52 143 0.0 4.0 0.00 0.00 0.00 75 1018.6
20210410003120 53 155 2.0 5.0 0.00 0.00 0.00 74 1018.5
20210410001620 53 117 1.0 3.0 0.00 0.00 0.00 73 1018.3
20210410000117 55 145 2.0 5.0 0.00 0.00 0.00 70 1017.9
20210409234849 55 190 1.0 3.0 0.00 0.00 0.00 70 1017.7
20210409233225 56 159 2.0 5.0 0.00 0.00 0.00 67 1017.7
20210409231617 57 155 1.0 7.0 0.00 0.00 0.00 66 1017.6
20210409230439 59 153 2.0 6.0 0.00 0.00 0.00 65 1017.5
20210409224614 60 129 3.0 6.0 0.00 0.00 0.00 63 1017.4
20210409223108 61 125 3.0 6.0 0.00 0.00 0.00 62 1017.4
20210409221540 63 124 4.0 9.0 0.00 0.00 0.00 59 1017.3
20210409220126 65 198 4.0 7.0 0.00 0.00 0.00 56 1017.2
20210409214546 66 152 3.0 10.0 0.00 0.00 0.00 55 1017.3
20210409213059 67 240 2.0 6.0 0.00 0.00 0.00 54 1017.1
20210409211619 66 184 4.0 10.0 0.00 0.00 0.00 55 1017.2
20210409210059 67 103 6.0 11.0 0.00 0.00 0.00 53 1017.2
20210409204541 67 134 3.0 7.0 0.00 0.00 0.00 54 1017.1
20210409203053 69 119 5.0 8.0 0.00 0.00 0.00 51 1017.1
20210409201610 69 245 3.0 8.0 0.00 0.00 0.00 49 1017.2
20210409200143 69 154 4.0 8.0 0.00 0.00 0.00 50 1017.3
20210409194514 69 212 1.0 7.0 0.00 0.00 0.00 50 1017.3
20210409193028 69 216 2.0 6.0 0.00 0.00 0.00 47 1017.4
20210409191523 69 80 2.0 6.0 0.00 0.00 0.00 48 1017.6
20210409190125 69 73 2.0 5.0 0.00 0.00 0.00 49 1017.7
20210409184640 68 170 1.0 8.0 0.00 0.00 0.00 49 1017.9
20210409183234 69 159 3.0 8.0 0.00 0.00 0.00 48 1018.3
20210409181644 69 101 2.0 6.0 0.00 0.00 0.00 50 1018.4
20210409180422 68 253 1.0 6.0 0.00 0.00 0.00 49 1018.6
20210409174625 69 80 4.0 7.0 0.00 0.00 0.00 48 1018.7
20210409173114 68 235 1.0 8.0 0.00 0.00 0.00 52 1018.9
20210409171631 67 195 4.0 8.0 0.00 0.00 0.00 50 1018.9
20210409170153 66 243 2.0 7.0 0.00 0.00 0.00 52 1019.2
20210409164642 66 159 3.0 8.0 0.00 0.00 0.00 51 1019.4
20210409163044 64 150 1.0 6.0 0.00 0.00 0.00 54 1019.6
20210409161533 64 229 1.0 7.0 0.00 0.00 0.00 56 1020.0
20210409160136 63 148 2.0 6.0 0.00 0.00 0.00 59 1020.4
20210409144620 58 245 2.0 5.0 0.00 0.00 0.00 67 1021.3